#timestamp,LO_Frequency,Hit,StdDev 
1607004015.5,286047001.4,N
1607004035.3,286047003.8,N
1607004055.2,286047004.0,N
1607004075.0,286047004.4,Y
1607004075.9,286047004.4,P
1607004095.7,286047002.2,N
1607004115.6,286047002.1,N
1607004135.4,286047004.4,Y
1607004155.2,286046998.7,P
1607004175.1,286046998.2,N
1607004176.0,286046998.2,N
1607004195.8,286046998.3,N
1607004215.6,286047000.8,N
1607004235.5,286047000.8,N
1607004255.3,286046999.9,N
1607004275.1,286047001.7,N
1607004295.9,286047001.5,N
1607004315.7,286047004.2,N
1607004335.5,286047001.5,N
1607004355.4,286047001.7,N
1607004375.2,286047001.6,N
1607004395.0,286047000.3,N
1607004395.9,286047000.3,N
1607004415.8,286047000.5,N
1607004435.6,286047000.0,N
1607004455.4,286047002.3,N
1607004475.3,286047000.3,N
1607004495.1,286047002.8,N
1607004515.8,286047000.1,N
1607004535.7,286046999.8,N
1607004555.5,286047000.0,N
1607004575.3,286047000.6,N
1607004595.2,286047000.6,N
1607004615.0,286047000.8,N
1607004615.9,286047000.8,N
1607004635.7,286047000.5,N
1607004655.6,286047000.0,N
1607004675.4,286046998.4,N
1607004695.2,286047000.0,N
1607004715.1,286046998.5,N
1607004716.0,286046998.5,N
1607004735.8,286046998.2,N
1607004755.6,286046998.5,N
1607004775.5,286047000.5,N
1607004795.3,286047000.4,N
1607004815.1,286047001.0,N
1607004835.9,286047000.0,N
1607004855.7,286047002.4,N
1607004875.5,286047002.3,N
1607004895.4,286047001.7,N
1607004915.2,286047002.8,N
1607004935.0,286047000.5,N
1607004935.9,286047000.5,N
1607004955.8,286047000.4,N
1607004975.6,286047001.6,N
1607004995.4,286047002.4,N
1607005015.3,286047000.2,N
1607005035.1,286047000.2,N
1607005055.8,286047002.4,N
1607005075.7,286047004.2,Y
1607005095.5,286047002.3,P
1607005115.3,286047000.3,N
1607005135.2,286046999.8,N
1607005155.9,286047000.6,N
1607005175.7,286047001.0,N
1607005195.6,286046999.9,N
1607005215.4,286047002.1,N
1607005235.2,286047001.7,N
1607005255.1,286047002.2,N
1607005256.0,286047002.2,N
1607005275.8,286047001.5,N
1607005295.6,286047001.6,N
1607005315.5,286047001.8,N
1607005335.3,286047002.2,N
1607005355.1,286046999.9,N
1607005375.9,286047001.1,N
1607005395.7,286047000.7,N
1607005415.5,286046998.2,N
1607005435.4,286046998.9,N
1607005455.2,286047000.6,N
1607005475.0,286047000.2,N
1607005475.9,286047000.2,N
1607005495.8,286047000.9,N
1607005515.6,286047000.2,N
1607005535.4,286046999.7,N
1607005555.3,286047002.7,N
1607005575.1,286047002.4,N
1607005576.0,286047002.4,N
1607005595.8,286047001.8,N
1607005615.7,286047002.7,N
1607005635.5,286047003.9,Y
1607005655.3,286047001.4,P
1607005675.2,286047001.8,P
1607005695.9,286047004.0,P
1607005715.7,286047003.8,Y
1607005735.6,286047000.3,P
1607005755.4,286047001.2,N
1607005775.2,286047000.5,N
1607005795.1,286046998.2,N
1607005796.0,286046998.2,N
1607005815.8,286046998.3,N
1607005835.6,286047000.5,N
1607005855.5,286047000.6,N
1607005875.3,286046998.2,N
1607005895.1,286046998.5,N
1607005915.9,286046998.9,N
1607005935.7,286046999.5,N
1607005955.5,286046997.7,N
1607005975.4,286046997.0,N
1607005995.2,286046996.6,N
1607006015.0,286046995.0,Y
1607006015.9,286046995.0,P
1607006035.8,286046997.4,N
1607006055.6,286046996.8,N
1607006075.4,286046999.2,N
1607006095.3,286046997.7,N
1607006115.1,286046999.5,N
1607006135.8,286047001.2,N
1607006155.7,286047000.8,N
1607006175.5,286046998.8,N
1607006195.3,286047001.2,N
1607006215.2,286047000.4,N
1607006235.0,286047000.4,N
1607006235.9,286047000.4,N
1607006255.7,286047001.1,N
1607006275.6,286047000.0,N
1607006295.4,286047001.0,N
1607006315.2,286047000.4,N
1607006335.1,286047000.8,N
1607006336.0,286047000.8,N
1607006355.8,286047001.0,N
1607006375.6,286046998.9,N
1607006395.5,286046998.3,N
1607006415.3,286046998.7,N
1607006435.1,286046999.3,N
1607006455.9,286046998.5,N
1607006475.7,286046998.7,N
1607006495.5,286046998.4,N
1607006515.4,286046997.1,N
1607006535.2,286046998.5,N
1607006555.0,286046999.3,N
1607006555.9,286046999.3,N
1607006575.8,286046998.9,N
1607006595.6,286046998.5,N
1607006615.4,286046999.1,N
1607006635.3,286046996.9,N
1607006655.1,286046997.7,N
1607006675.8,286046998.0,N
1607006695.7,286046994.9,Y
1607006715.5,286046996.7,P
1607006735.3,286046999.0,N
1607006755.2,286046999.5,N
1607006775.9,286046998.6,N
1607006795.7,286046996.6,Y
1607006815.6,286047001.1,P
1607006835.4,286046998.7,N
1607006855.2,286046998.2,N
1607006875.1,286046998.6,N
1607006876.0,286046998.6,N
1607006895.8,286046998.6,N
1607006915.6,286046999.9,N
1607006935.5,286047000.2,N
1607006955.3,286047001.2,N
1607006975.1,286046998.8,N
1607006995.9,286046998.6,N
1607007015.7,286046998.9,N
1607007035.5,286047001.2,N
1607007055.4,286047000.1,N
1607007075.2,286046999.7,N
1607007095.0,286046998.1,N
1607007095.9,286046998.1,N
1607007115.8,286046998.6,N
1607007135.6,286046998.1,N
1607007155.4,286046998.4,N
1607007175.3,286046998.7,N
1607007195.1,286046998.1,N
1607007196.0,286046998.1,N
1607007215.8,286046999.9,N
1607007235.7,286047000.9,N
1607007255.5,286046999.7,N
1607007275.3,286047001.0,N
1607007295.2,286046999.3,N
1607007315.9,286046998.4,N
1607007335.7,286046998.7,N
1607007355.6,286046999.4,N
1607007375.4,286046999.4,N
1607007395.2,286046997.6,N
1607007415.1,286046996.9,Y
1607007416.0,286046996.9,P
1607007435.8,286046999.4,N
1607007455.6,286046999.2,N
1607007475.5,286047001.2,N
1607007495.3,286046998.1,N
1607007515.1,286047000.6,N
1607007535.9,286046998.7,N
1607007555.7,286047001.1,N
1607007575.5,286047001.1,N
1607007595.4,286047000.0,N
